{"data":{"norad_id":66939,"epoch":"2026-05-25T01:02:22.003008Z","epoch_age_seconds":68313,"freshness":"FRESH","line1":"1 66939U 25286Q   26145.04331022  .00019532  00000+0  58707-3 0  9998","line2":"2 66939  53.1584   3.3165 0000588 301.2301  58.8644 15.34433419 27113","mean_motion":15.34433419,"eccentricity":5.88e-5,"inclination_deg":53.1584,"raan_deg":3.3165,"arg_perigee_deg":301.2301,"mean_anomaly_deg":58.8644,"bstar":0.00058707,"rev_number":2711,"period_min":93.84571413587,"perigee_km":462.20167813341,"apogee_km":463.00614926486,"semimajor_km":6840.7409136991,"source":"CELESTRAK","updated_at":"2026-05-25T13:38:21.388300Z"}}